Location: Farmers Union Landing
(35.3631°N, 88.2048°W)
Time: 15:57:26
(UTC+00:00)

ISS - Visible Passes

Search period start: 04 June 2020 00:00
Search period end: 14 June 2020 00:00
Orbit: 417 x 419 km, 51.6° (Epoch: 05 June)

Date Brightness Start Highest point End Pass type
(mag) Time Alt. Az. Time Alt. Az. Time Alt. Az.
04 Jun -3.2 01:50:53 10° NW 01:54:09 48° NE 01:56:51 14° ESE visible
04 Jun -1.1 03:28:53 10° W 03:29:48 13° WSW 03:29:48 13° WSW visible
05 Jun -2.1 02:40:07 10° WNW 02:42:54 24° SW 02:43:54 21° SSW visible
06 Jun -3.0 01:51:54 10° WNW 01:55:09 46° SW 01:58:04 12° SSE visible
08 Jun -1.1 01:54:04 10° W 01:55:52 14° SW 01:57:40 10° SSW visible
